time_stamp(utc),avg(mph),gust(mph),direction(deg),12m_air_temp(f),sonic_u(cm/s),sonic_v(cm/s),sonic_w(cm/s),pressure,2m_air_temp(f),pyranometer(W/m^2)
"2017-05-04 00:00:21+00",9.1,10.1,,62.5,-321,252,37,1016.92,60.9,0
"2017-05-04 00:05:21+00",10.9,11.9,,62.4,-402,295,30,1017.08,60.7,0
"2017-05-04 00:10:21+00",11.0,12.0,,62.3,-411,276,35,1017.23,60.5,0
"2017-05-04 00:15:21+00",9.8,9.8,,62.1,-372,229,26,1017.31,60.2,0
"2017-05-04 00:20:21+00",9.9,10.9,,62.1,-378,235,28,1017.75,60,0
"2017-05-04 00:25:21+00",9.2,10.2,,62.1,-329,241,26,1017.96,59.8,0
"2017-05-04 00:30:21+00",12.3,13.3,,62.1,-205,496,31,1018.11,59.8,0
"2017-05-04 00:35:21+00",9.8,10.8,,61.6,-169,394,28,1018.52,59.7,0
"2017-05-04 00:40:21+00",9.9,10.9,,60.4,-82,431,17,1018.82,59.1,0
"2017-05-04 00:45:21+00",10.9,11.9,,60.2,-128,459,13,1018.96,58.5,0
"2017-05-04 00:50:21+00",10.8,10.8,,60.5,-167,447,22,1019.12,58.1,0
"2017-05-04 00:55:21+00",10.8,12.8,,60.2,-149,443,13,1019.28,57.6,0
"2017-05-04 01:00:21+00",10.0,11.0,,60.1,-178,396,20,1019.48,57.2,0
"2017-05-04 01:05:21+00",10.3,12.3,,59.8,-205,408,24,1019.85,56.9,0
"2017-05-04 01:10:21+00",10.8,12.8,,59.7,-183,446,24,1019.98,56.7,0
"2017-05-04 01:15:21+00",11.0,13.0,,59.1,-117,474,12,1019.91,56.7,0
"2017-05-04 01:20:21+00",11.0,12.0,,58.5,-96,463,10,1019.86,56.3,0
"2017-05-04 01:25:21+00",11.4,13.4,,58.2,-66,498,13,1019.9,56,0
"2017-05-04 01:30:21+00",12.2,13.2,,58.1,-77,527,17,1019.94,55.7,0
"2017-05-04 01:35:21+00",11.8,13.8,,58.1,6,513,8,1019.85,55.6,0
"2017-05-04 01:40:21+00",11.0,14.0,,58.1,3,479,8,1020.04,55.6,0
"2017-05-04 01:45:21+00",9.8,10.8,,58.1,-54,428,17,1020.24,55.6,0
"2017-05-04 01:50:21+00",10.3,12.3,,57.8,-47,439,20,1020.38,55.5,0
"2017-05-04 01:55:21+00",11.2,13.2,,57.6,-23,481,14,1020.49,55.4,0
"2017-05-04 02:00:21+00",10.0,12.0,,57.4,-67,429,22,1020.71,55.2,0
"2017-05-04 02:05:21+00",9.2,10.2,,57.1,-68,398,17,1020.67,55,0
"2017-05-04 02:10:21+00",11.1,12.1,,57,-76,476,16,1020.75,54.7,0
"2017-05-04 02:15:21+00",10.0,12.0,,56.9,-56,423,22,1020.84,54.6,0
"2017-05-04 02:20:21+00",9.2,11.2,,56.8,20,395,16,1020.85,54.5,0
"2017-05-04 02:25:21+00",9.1,10.1,,56.5,-25,394,11,1020.91,54.2,0
"2017-05-04 02:30:21+00",10.8,11.8,,56.5,-9,474,13,1020.99,53.9,0
"2017-05-04 02:35:21+00",10.1,11.1,,56.4,20,440,14,1021.03,53.8,0
"2017-05-04 02:40:21+00",10.2,11.2,,56.4,23,442,6,1021.05,53.7,0
"2017-05-04 02:45:21+00",10.9,11.9,,56.5,-4,470,17,1020.95,53.6,0
"2017-05-04 02:50:21+00",11.5,13.5,,56.5,4,499,12,1020.94,53.6,0
"2017-05-04 02:55:21+00",10.0,11.0,,56.2,77,420,8,1021.06,53.5,0
"2017-05-04 03:00:21+00",9.2,10.2,,55.9,48,390,9,1021.24,53.3,0
"2017-05-04 03:05:21+00",10.8,11.8,,55.6,21,472,14,1021.15,52.9,0
"2017-05-04 03:10:21+00",11.1,12.1,,55.4,105,463,3,1021.11,52.6,0
"2017-05-04 03:15:21+00",11.4,13.4,,55.4,106,473,3,1021.2,52.9,0
"2017-05-04 03:20:21+00",12.3,13.3,,55.5,86,527,4,1021.15,53.2,0
"2017-05-04 03:25:21+00",12.5,14.5,,55.4,31,541,11,1021.04,53.1,0
"2017-05-04 03:30:21+00",11.7,12.7,,55.4,59,500,13,1021.21,53.1,0
"2017-05-04 03:35:21+00",12.8,14.8,,55.3,126,534,-4,1021.29,53.1,0
"2017-05-04 03:40:21+00",13.6,15.6,,55.2,70,587,10,1021.21,53.2,0
"2017-05-04 03:45:21+00",12.5,13.5,,54.9,38,534,15,1021.27,53,0
"2017-05-04 03:50:21+00",11.3,12.3,,54.6,29,488,12,1021.57,52.8,0
"2017-05-04 03:55:21+00",12.3,13.3,,54.4,23,537,7,1021.59,52.6,0
"2017-05-04 04:00:21+00",12.7,14.7,,54.1,34,553,7,1021.71,52.3,0
"2017-05-04 04:05:21+00",11.8,13.8,,53.8,72,500,7,1021.82,51.9,0
"2017-05-04 04:10:21+00",11.1,12.1,,53.7,48,479,9,1021.83,51.7,0
"2017-05-04 04:15:21+00",11.1,13.1,,53.9,9,485,12,1021.81,51.6,0
"2017-05-04 04:20:21+00",10.9,12.9,,53.7,58,470,7,1021.86,51.4,0
"2017-05-04 04:25:21+00",10.1,11.1,,53.7,99,412,-1,1021.91,51.5,0
"2017-05-04 04:30:21+00",10.1,12.1,,53.7,36,445,10,1021.94,51.4,0
"2017-05-04 04:35:21+00",10.1,12.1,,53.8,73,430,5,1022,51.3,0
"2017-05-04 04:40:21+00",9.8,10.8,,53.8,140,383,-1,1021.99,51.4,0
"2017-05-04 04:45:21+00",8.9,8.9,,53.9,147,337,2,1022.16,51.4,0
"2017-05-04 04:50:21+00",8.0,11.0,,54,92,319,3,1022.17,51.2,0
"2017-05-04 04:55:21+00",10.1,12.1,,54.1,252,341,8,1022.16,51.3,0
"2017-05-04 05:00:21+00",10.3,12.3,,54.6,190,397,15,1022.15,51.8,0
"2017-05-04 05:05:21+00",11.3,13.3,,54.4,225,426,19,1022.06,52,0
"2017-05-04 05:10:21+00",14.3,17.3,,54.5,285,545,6,1022.23,52.3,0
"2017-05-04 05:15:21+00",10.4,11.4,,54.5,153,398,0,1022.14,52.5,0
"2017-05-04 05:20:21+00",12.3,13.3,,54.3,266,455,10,1022.05,52.4,0
"2017-05-04 05:25:21+00",11.7,14.7,,54.3,273,423,12,1022.07,52.3,0
"2017-05-04 05:30:21+00",11.7,12.7,,54.2,260,427,11,1022.18,52.3,0
"2017-05-04 05:35:21+00",12.5,13.5,,54.2,324,413,8,1022.04,52,0
"2017-05-04 05:40:21+00",12.5,14.5,,54.2,327,402,3,1022.34,52.2,0
"2017-05-04 05:45:21+00",12.6,13.6,,54.1,299,452,11,1022.28,52.2,0
"2017-05-04 05:50:21+00",12.1,13.1,,54.1,277,434,6,1022.25,52.1,0
"2017-05-04 05:55:21+00",12.2,14.2,,54,303,418,15,1022.3,52.2,0
"2017-05-04 06:00:21+00",14.9,17.9,,54.2,317,566,8,1022.28,52.3,0
"2017-05-04 06:05:21+00",12.9,14.9,,54.2,283,476,12,1022.29,52.5,0
"2017-05-04 06:10:21+00",14.4,17.4,,54.1,345,523,14,1022.28,52.5,0
"2017-05-04 06:15:21+00",13.0,15.0,,53.8,301,467,6,1022.3,52.3,0
"2017-05-04 06:20:21+00",12.4,13.4,,53.6,273,466,6,1022.06,51.9,0
"2017-05-04 06:25:21+00",13.3,15.3,,53.5,308,482,2,1022.09,51.7,0
"2017-05-04 06:30:21+00",12.2,13.2,,53.5,293,439,17,1022.19,51.7,0
"2017-05-04 06:35:21+00",11.6,13.6,,53.5,256,418,-3,1022.06,51.6,0
"2017-05-04 06:40:21+00",11.4,13.4,,53.5,288,378,14,1021.98,51.7,0
"2017-05-04 06:45:21+00",11.7,12.7,,53.6,324,349,10,1022.07,51.7,0
"2017-05-04 06:50:21+00",11.0,14.0,,53.5,283,370,13,1021.91,51.6,0
"2017-05-04 06:55:21+00",12.2,13.2,,53.5,302,422,9,1022.03,51.5,0
"2017-05-04 07:00:21+00",10.2,11.2,,53.3,299,294,10,1022.12,51.5,0
"2017-05-04 07:05:21+00",12.1,13.1,,53.5,336,360,6,1022.11,51.6,0
"2017-05-04 07:10:21+00",9.6,11.6,,53.1,320,253,19,1022.07,51.3,0
"2017-05-04 07:15:21+00",11.7,12.7,,53.3,468,224,21,1022.12,51.1,0
"2017-05-04 07:20:21+00",13.5,15.5,,53.4,527,285,22,1022.22,51.3,0
"2017-05-04 07:25:21+00",11.3,12.3,,53.3,476,184,20,1022.23,51.4,0
"2017-05-04 07:30:21+00",12.4,14.4,,52.9,544,139,37,1022.37,51.4,0
"2017-05-04 07:35:21+00",11.8,13.8,,52.7,515,128,25,1022.31,51.4,0
"2017-05-04 07:40:21+00",12.2,13.2,,52.5,545,46,20,1022.37,51.3,0
"2017-05-04 07:45:21+00",12.0,14.0,,52.4,524,117,24,1022.4,51.2,0
"2017-05-04 07:50:21+00",10.9,12.9,,52.4,482,69,30,1022.41,51.1,0
"2017-05-04 07:55:21+00",10.0,12.0,,52.2,441,56,37,1022.42,51,0
"2017-05-04 08:00:21+00",11.1,13.1,,52.1,489,85,20,1022.39,50.8,0
"2017-05-04 08:05:21+00",10.6,12.6,,52.1,469,31,20,1022.54,50.9,0
"2017-05-04 08:10:21+00",10.1,12.1,,52,442,92,17,1022.47,50.8,0
"2017-05-04 08:15:21+00",11.5,13.5,,52.2,507,52,27,1022.65,50.7,0
"2017-05-04 08:20:21+00",10.5,12.5,,52.1,458,84,20,1022.59,50.7,0
"2017-05-04 08:25:21+00",11.8,12.8,,52.2,519,94,29,1022.6,50.6,0
"2017-05-04 08:30:21+00",10.9,11.9,,52.1,488,31,31,1022.67,50.6,0
"2017-05-04 08:35:21+00",9.9,11.9,,52.1,438,76,27,1022.54,50.6,0
"2017-05-04 08:40:21+00",11.1,12.1,,52,482,105,29,1022.62,50.4,0
"2017-05-04 08:45:21+00",11.1,12.1,,52,491,95,19,1022.58,50.4,0
"2017-05-04 08:50:21+00",10.7,11.7,,51.9,462,106,24,1022.5,50.2,0
"2017-05-04 08:55:21+00",10.4,11.4,,51.9,460,65,25,1022.61,50.2,0
"2017-05-04 09:00:21+00",9.5,10.5,,51.8,415,79,22,1022.71,50,0
"2017-05-04 09:05:21+00",9.0,10.0,,51.8,401,26,21,1022.83,49.9,0
"2017-05-04 09:10:21+00",8.3,10.3,,51.7,364,19,12,1022.82,49.9,0
"2017-05-04 09:15:21+00",9.5,10.5,,51.6,423,-21,17,1022.82,49.9,0
"2017-05-04 09:20:21+00",8.6,9.6,,51.4,380,8,18,1022.99,49.8,0
"2017-05-04 09:25:21+00",7.8,8.8,,51.3,342,7,17,1023.13,49.7,0
"2017-05-04 09:30:21+00",8.4,9.4,,51.3,370,0,14,1023.18,49.6,0
"2017-05-04 09:35:21+00",8.9,9.9,,51.3,391,13,20,1023.19,49.5,0
"2017-05-04 09:40:21+00",8.5,9.5,,51.4,373,25,20,1023.16,49.3,0
"2017-05-04 09:45:21+00",9.7,10.7,,51.3,429,62,24,1023.1,49.1,0
"2017-05-04 09:50:21+00",9.5,10.5,,51.3,411,84,22,1023.04,48.9,0
"2017-05-04 09:55:21+00",9.8,10.8,,51.3,424,70,28,1023.13,48.9,0
"2017-05-04 10:00:21+00",9.9,10.9,,51.4,431,72,24,1023.03,48.9,0
"2017-05-04 10:05:21+00",9.0,10.0,,51.4,396,26,23,1023.13,49,0
"2017-05-04 10:10:21+00",9.2,10.2,,51.4,408,58,25,1023.18,49.2,0
"2017-05-04 10:15:21+00",9.2,10.2,,51.4,410,33,17,1023.13,49.5,0
"2017-05-04 10:20:21+00",9.9,10.9,,51.5,431,87,26,1023.23,49.9,0
"2017-05-04 10:25:21+00",9.8,10.8,,51.6,427,80,21,1023.31,50.3,0
"2017-05-04 10:30:21+00",9.8,10.8,,51.7,432,69,18,1023.34,50.7,0
"2017-05-04 10:35:21+00",9.7,10.7,,51.8,421,68,23,1023.26,51.1,3.3
"2017-05-04 10:40:21+00",8.9,10.9,,52,393,58,17,1023.5,51.7,12.1
"2017-05-04 10:45:21+00",9.0,10.0,,52.1,391,97,18,1023.51,52.3,16.4
"2017-05-04 10:50:21+00",9.6,10.6,,52.3,416,73,32,1023.54,52.6,27.4
"2017-05-04 10:55:21+00",11.3,14.3,,52.5,491,104,33,1023.43,53,38.9
"2017-05-04 11:00:21+00",11.0,12.0,,52.6,477,95,33,1023.47,53.4,49.3
"2017-05-04 11:05:21+00",10.8,12.8,,52.7,484,48,34,1023.47,53.8,58.5
"2017-05-04 11:10:21+00",10.8,11.8,,52.8,476,45,23,1023.69,54,70.6
"2017-05-04 11:15:21+00",11.4,13.4,,52.9,498,64,35,1023.66,54.3,76.5
"2017-05-04 11:20:21+00",11.5,12.5,,52.9,513,49,18,1023.81,54.4,93.5
"2017-05-04 11:25:21+00",10.9,11.9,,52.9,488,30,38,1023.82,54.5,101.3
"2017-05-04 11:30:21+00",13.2,14.2,,52.9,582,62,19,1023.78,54.5,85.1
"2017-05-04 11:35:21+00",14.2,16.2,,53.1,635,27,19,1023.72,54.7,112.2
"2017-05-04 11:40:21+00",13.7,15.7,,53.1,609,38,21,1023.53,54.7,106.8
"2017-05-04 11:45:21+00",14.1,15.1,,53,635,0,15,1023.46,54.8,3.8
"2017-05-04 11:50:21+00",12.3,15.3,,53.2,547,60,31,1023.52,55.2,155.4
"2017-05-04 11:55:21+00",13.1,15.1,,53.1,585,19,33,1023.53,55.2,168.3
"2017-05-04 12:00:21+00",13.6,15.6,,53.4,609,-23,29,1023.58,55.3,175.4
"2017-05-04 12:05:21+00",13.6,15.6,,53.5,604,79,11,1023.54,55.7,189.6
"2017-05-04 12:10:21+00",13.5,15.5,,53.5,596,69,55,1023.68,55.7,195
"2017-05-04 12:15:21+00",15.7,17.7,,53.6,690,117,35,1023.82,56,206.2
"2017-05-04 12:20:21+00",13.7,15.7,,54,615,28,47,1023.74,56.2,213.1
"2017-05-04 12:25:21+00",14.8,16.8,,53.9,658,46,53,1023.71,56.3,220.2
"2017-05-04 12:30:21+00",17.8,18.8,,53.7,798,-65,25,1023.86,56.1,229.9
"2017-05-04 12:35:21+00",15.9,18.9,,53.9,719,29,31,1023.87,56.2,238.9
"2017-05-04 12:40:21+00",15.8,18.8,,53.9,711,35,44,1023.88,56,238.2
"2017-05-04 12:45:21+00",17.1,20.1,,53.9,773,13,39,1023.85,56.4,262.9
"2017-05-04 12:50:21+00",18.2,21.2,,53.9,807,20,32,1024.1,56.2,263.4
"2017-05-04 12:55:21+00",16.1,18.1,,53.8,713,40,64,1024.23,56,178.9
"2017-05-04 13:00:21+00",14.7,16.7,,53.8,654,-78,59,1024.35,56.2,296
"2017-05-04 13:05:21+00",17.8,19.8,,53.6,801,27,30,1024.14,56.3,209.1
"2017-05-04 13:10:21+00",17.1,20.1,,53.6,756,51,35,1024.19,56,190.7
"2017-05-04 13:15:21+00",15.8,17.8,,53.7,699,58,34,1024.25,55.9,245.5
"2017-05-04 13:20:21+00",16.4,18.4,,53.6,736,-92,11,1024.19,55.8,214.6
"2017-05-04 13:25:21+00",17.4,18.4,,53.3,779,-7,42,1024.12,55.6,196.4
"2017-05-04 13:30:21+00",17.2,19.2,,53.5,763,8,51,1024.18,55.4,212.2
"2017-05-04 13:35:21+00",19.8,20.8,,53.1,891,2,15,1023.85,55.6,321
"2017-05-04 13:40:21+00",19.2,22.2,,53.5,864,-77,23,1023.76,56,344.4
"2017-05-04 13:45:21+00",16.5,20.5,,53.8,728,-111,56,1023.84,56.1,317.8
"2017-05-04 13:50:21+00",18.2,20.2,,53.6,811,13,35,1023.78,56.6,371.7
"2017-05-04 13:55:21+00",17.9,20.9,,53.9,796,-82,18,1023.81,56.7,368.7
"2017-05-04 14:00:21+00",16.5,19.5,,54,744,-18,43,1023.9,56.9,378.8
"2017-05-04 14:05:21+00",18.8,21.8,,54.1,822,-152,30,1023.94,57,386.6
"2017-05-04 14:10:21+00",17.3,19.3,,53.5,747,-194,3,1024.09,56.5,385.7
"2017-05-04 14:15:21+00",18.1,20.1,,53.3,791,-127,-5,1024.31,56.5,401.8
"2017-05-04 14:20:21+00",15.6,19.6,,53.7,687,-87,33,1024.41,56.6,401.2
"2017-05-04 14:25:21+00",15.8,18.8,,54,687,-105,45,1024.47,56.9,424.4
"2017-05-04 14:30:21+00",17.4,19.4,,53.3,761,-147,-16,1024.55,56.6,439.5
"2017-05-04 14:35:21+00",16.8,17.8,,53.3,744,-127,-9,1024.44,56.7,437.8
"2017-05-04 14:40:21+00",17.2,18.2,,53.4,760,-113,-5,1024.54,56.7,438.7
"2017-05-04 14:45:21+00",14.1,16.1,,53.8,608,-163,34,1024.55,57,454.7
"2017-05-04 14:50:21+00",15.5,16.5,,53.8,642,-248,-8,1024.65,57.1,448.6
"2017-05-04 14:55:21+00",15.9,17.9,,53.6,703,-95,26,1024.52,57.1,478
"2017-05-04 15:00:21+00",14.9,17.9,,53.8,606,-280,45,1024.59,57.1,484.5
"2017-05-04 15:05:21+00",13.1,15.1,,53.4,566,-138,-16,1024.42,57.2,519.7
"2017-05-04 15:10:21+00",15.5,16.5,,53.6,639,-254,-15,1024.53,57.4,430.2
"2017-05-04 15:15:21+00",14.0,16.0,,53.4,544,-305,18,1024.42,57.1,558.5
"2017-05-04 15:20:21+00",14.5,16.5,,53.7,612,-214,33,1024.35,57.6,409.3
"2017-05-04 15:25:21+00",16.1,18.1,,53.6,689,-188,-7,1024.12,57.6,439.9
"2017-05-04 15:30:21+00",15.4,17.4,,53.5,604,-314,9,1024.21,57.4,398.4
"2017-05-04 15:35:21+00",15.2,17.2,,53.5,674,-108,5,1024.1,57.5,443.1
"2017-05-04 15:40:21+00",16.1,19.1,,53.6,692,-154,26,1024.07,57.3,534.3
"2017-05-04 15:45:21+00",15.9,17.9,,53.7,690,-171,-10,1023.96,57.3,537.6
"2017-05-04 15:50:21+00",14.9,16.9,,53.8,647,-127,40,1023.87,57.4,534.2
"2017-05-04 15:55:21+00",15.7,17.7,,53.7,661,-217,5,1023.9,57.3,531.6
"2017-05-04 16:00:21+00",14.7,16.7,,53.6,610,-250,12,1023.98,57.1,445
"2017-05-04 16:05:21+00",16.8,18.8,,53.5,739,-136,1,1024,57.3,554.4
"2017-05-04 16:10:21+00",14.9,16.9,,53.6,661,-77,37,1023.86,57.6,562.6
"2017-05-04 16:15:21+00",16.1,18.1,,53.6,718,-81,42,1023.78,57.6,506.1
"2017-05-04 16:20:21+00",13.7,15.7,,53.7,553,-258,58,1023.74,57.4,501
"2017-05-04 16:25:21+00",15.4,16.4,,53.3,657,-218,-25,1023.77,57.2,557.3
"2017-05-04 16:30:21+00",15.6,18.6,,53.3,666,-220,-16,1023.64,57.3,483.6
"2017-05-04 16:35:21+00",16.1,18.1,,53.5,705,-143,-10,1023.59,57.3,579.8
"2017-05-04 16:40:21+00",14.3,16.3,,54.4,612,-181,23,1023.61,57.9,479.1
"2017-05-04 16:45:21+00",14.2,17.2,,53.7,591,-208,7,1023.52,57.7,506.2
"2017-05-04 16:50:21+00",12.5,14.5,,53.9,545,-73,45,1023.68,57.6,453.2
"2017-05-04 16:55:21+00",11.9,14.9,,54.4,475,-223,9,1023.62,58.5,544.7
"2017-05-04 17:00:21+00",14.3,16.3,,54,595,-215,-7,1023.43,57.9,592
"2017-05-04 17:05:21+00",13.1,15.1,,53.8,563,-128,42,1023.31,57.6,555.2
"2017-05-04 17:10:21+00",14.4,16.4,,54.1,629,-91,33,1023.2,57.9,448.9
"2017-05-04 17:15:21+00",12.9,14.9,,54.4,564,-98,46,1023.32,58.1,447.8
"2017-05-04 17:20:21+00",14.3,16.3,,54.2,623,-101,64,1023.44,58.4,414.3
"2017-05-04 17:25:21+00",13.9,15.9,,53.9,590,-175,3,1023.39,57.8,423.4
"2017-05-04 17:30:21+00",12.8,15.8,,54,559,-123,17,1023.42,58,381.9
"2017-05-04 17:35:21+00",16.3,18.3,,53.7,650,-316,-7,1023.27,57.8,329.1
"2017-05-04 17:40:21+00",14.3,19.3,,54,627,-140,32,1023.25,57.6,397.9
"2017-05-04 17:45:21+00",13.1,16.1,,54,538,-222,44,1023.29,57.5,434.5
"2017-05-04 17:50:21+00",15.0,17.0,,54,662,-109,33,1023.13,57.4,233
"2017-05-04 17:55:21+00",15.0,17.0,,53.8,618,-259,14,1022.97,57.1,227.8
"2017-05-04 18:00:21+00",14.4,16.4,,54,603,-204,23,1022.96,56.9,261.8
"2017-05-04 18:05:21+00",15.4,17.4,,54.3,638,-245,26,1022.91,57.4,317.3
"2017-05-04 18:10:21+00",16.8,18.8,,54.2,715,-230,-2,1022.68,57.4,361.2
"2017-05-04 18:15:21+00",16.9,18.9,,53.8,664,-347,-15,1022.65,57.4,425.8
"2017-05-04 18:20:21+00",17.3,19.3,,53.8,765,-108,60,1022.62,57.4,412
"2017-05-04 18:25:21+00",16.7,18.7,,53.9,676,-310,12,1022.64,57.2,485.1
"2017-05-04 18:30:21+00",17.5,19.5,,53.6,727,-271,-5,1022.58,57.5,579.1
"2017-05-04 18:35:21+00",15.5,18.5,,54,616,-326,50,1022.65,57.8,442.8
"2017-05-04 18:40:21+00",17.2,19.2,,53.8,709,-296,-19,1022.63,57.6,429.3
"2017-05-04 18:45:21+00",16.8,18.8,,53.8,718,-232,-7,1022.47,57.4,291
"2017-05-04 18:50:21+00",16.0,18.0,,53.6,659,-259,-21,1022.4,57.2,340.2
"2017-05-04 18:55:21+00",15.2,17.2,,53.8,657,-166,-4,1022.3,57.1,320.1
"2017-05-04 19:00:21+00",15.3,17.3,,54,588,-339,17,1022.43,57.1,270.6
"2017-05-04 19:05:21+00",15.3,17.3,,53.7,670,-124,-1,1022.44,56.8,242.3
"2017-05-04 19:10:21+00",15.7,18.7,,53.7,681,-192,0,1022.54,56.7,261
"2017-05-04 19:15:21+00",14.8,16.8,,53.6,629,-186,-6,1022.48,56.8,254
"2017-05-04 19:20:21+00",15.1,17.1,,53.8,627,-227,-16,1022.46,56.8,213
"2017-05-04 19:25:21+00",13.2,15.2,,53.8,534,-248,17,1022.58,56.8,247.7
"2017-05-04 19:30:21+00",14.0,16.0,,53.7,593,-171,0,1022.47,56.8,356.2
"2017-05-04 19:35:21+00",15.4,17.4,,53.5,614,-295,-22,1022.36,57.2,377
"2017-05-04 19:40:21+00",14.1,16.1,,53.5,601,-156,4,1022.24,57,242.2
"2017-05-04 19:45:21+00",13.2,14.2,,53.4,506,-286,3,1022.3,56.6,168.5
"2017-05-04 19:50:21+00",14.4,16.4,,53.6,607,-177,52,1022.06,56.4,147.8
"2017-05-04 19:55:21+00",15.3,16.3,,53.1,659,-183,-17,1021.8,55.9,161.9
"2017-05-04 20:00:21+00",15.6,18.6,,53.4,678,-161,18,1021.9,55.6,137.6
"2017-05-04 20:05:21+00",13.6,14.6,,53.3,578,-155,7,1021.77,55.6,138.7
"2017-05-04 20:10:21+00",14.8,15.8,,53.4,649,-107,61,1021.86,55.8,126.1
"2017-05-04 20:15:21+00",16.1,17.1,,53.1,717,-90,13,1021.52,55.3,113.3
"2017-05-04 20:20:21+00",14.2,15.2,,53.4,599,-206,14,1021.58,55.2,99.3
"2017-05-04 20:25:21+00",13.8,15.8,,53.4,588,-202,3,1021.7,55.3,86.9
"2017-05-04 20:30:21+00",15.3,16.3,,53.1,675,-89,13,1021.67,55.1,86.6
"2017-05-04 20:35:21+00",14.8,16.8,,53.5,606,-264,10,1021.68,55.2,84.5
"2017-05-04 20:40:21+00",14.9,15.9,,53.1,632,-210,-9,1021.57,54.9,92
"2017-05-04 20:45:21+00",15.2,17.2,,53.2,664,-175,-9,1021.35,54.9,102.1
"2017-05-04 20:50:21+00",14.8,15.8,,53,636,-173,23,1021.39,54.9,102.9
"2017-05-04 20:55:21+00",15.4,17.4,,53.2,670,-162,-4,1021.41,55,110.1
"2017-05-04 21:00:21+00",16.8,17.8,,53.1,732,-186,-5,1021.36,55,129.3
"2017-05-04 21:05:21+00",13.5,14.5,,53.6,597,-120,54,1021.2,55.3,144.1
"2017-05-04 21:10:21+00",15.2,17.2,,53.3,669,-122,-6,1021.43,55.3,141.4
"2017-05-04 21:15:21+00",12.4,14.4,,53.5,554,-100,71,1021.2,55.3,132.4
"2017-05-04 21:20:21+00",14.7,16.7,,53.6,628,-203,32,1021.21,55.4,112.5
"2017-05-04 21:25:21+00",15.3,17.3,,53.2,669,-157,1,1021.04,55.2,148.5
"2017-05-04 21:30:21+00",15.5,17.5,,53.3,678,-143,24,1021.13,55.3,196.4
"2017-05-04 21:35:21+00",16.3,17.3,,53.1,720,-101,-16,1020.93,55.1,94.9
"2017-05-04 21:40:21+00",17.7,19.7,,53.2,773,-173,-2,1020.93,55,113.5
"2017-05-04 21:45:21+00",14.1,16.1,,53.3,635,-112,43,1020.77,55,125.7
"2017-05-04 21:50:21+00",17.2,19.2,,53.3,768,-90,3,1020.85,54.8,96.1
"2017-05-04 21:55:21+00",14.1,17.1,,53.4,607,-111,52,1020.76,54.7,49.3
"2017-05-04 22:00:21+00",14.7,15.7,,53.2,633,-176,5,1020.91,54.4,36.9
"2017-05-04 22:05:21+00",15.4,16.4,,53.2,664,-163,-7,1020.9,54.3,32.8
"2017-05-04 22:10:21+00",15.4,16.4,,53.2,664,-167,1,1020.83,54.2,19.7
"2017-05-04 22:15:21+00",14.3,16.3,,53.3,616,-169,30,1020.86,54.1,9.3
"2017-05-04 22:20:21+00",14.2,16.2,,53.2,618,-133,17,1020.82,54,0.8
"2017-05-04 22:25:21+00",15.1,18.1,,53.2,656,-181,13,1020.75,53.9,0.6
"2017-05-04 22:30:21+00",15.6,17.6,,53.2,682,-151,0,1020.62,53.9,0.6
"2017-05-04 22:35:21+00",15.9,18.9,,53.2,699,-127,22,1020.54,53.8,0
"2017-05-04 22:40:21+00",16.9,17.9,,53.2,743,-124,-1,1020.27,53.8,0
"2017-05-04 22:45:21+00",15.9,19.9,,53.2,707,-119,37,1020.41,53.8,0
"2017-05-04 22:50:21+00",16.1,18.1,,53.2,709,-112,6,1020.3,53.8,0
"2017-05-04 22:55:21+00",16.0,18.0,,53.2,697,-168,0,1020.45,53.7,0
"2017-05-04 23:00:21+00",17.2,19.2,,53.2,758,-157,-1,1020.25,53.6,0
"2017-05-04 23:05:21+00",14.8,16.8,,53.3,644,-118,27,1020.36,53.7,0
"2017-05-04 23:10:21+00",15.3,18.3,,53.3,674,-141,5,1020.37,53.7,0
"2017-05-04 23:15:21+00",15.0,18.0,,53.3,659,-104,30,1020.3,53.7,0
"2017-05-04 23:20:21+00",14.0,16.0,,53.3,614,-97,25,1020.21,53.6,0
"2017-05-04 23:25:21+00",14.3,16.3,,53.3,628,-138,36,1020.27,53.6,0
"2017-05-04 23:30:21+00",15.8,19.8,,53.3,706,-116,21,1020.15,53.6,0
"2017-05-04 23:35:21+00",16.1,18.1,,53.3,708,-139,2,1020.14,53.5,0
"2017-05-04 23:40:21+00",15.6,17.6,,53.3,676,-152,27,1020.11,53.5,0
"2017-05-04 23:45:21+00",14.7,17.7,,53.3,630,-131,24,1019.98,53.5,0
"2017-05-04 23:50:21+00",16.6,18.6,,53.3,719,-171,13,1019.98,53.5,0
"2017-05-04 23:55:21+00",16.5,18.5,,53.2,724,-152,-6,1019.94,53.4,0
